| time (UTC) | temp C | wind direction | speed KPH | gust KPH | rain 1hr cm | rain 24hr cm | rain mn cm | humidity % | barometer mb |
| 20260508142748 | 13 | 293 | 0.0 | 4.8 | 0.00 | 0.00 | 0.00 | 56 | 1017.3 |
| 20260508141753 | 14 | 269 | 0.0 | 6.4 | 0.00 | 0.00 | 0.00 | 56 | 1017.2 |
| 20260508140728 | 15 | 132 | 0.0 | 3.2 | 0.00 | 0.00 | 0.00 | 55 | 1017.1 |
| 20260508135735 | 15 | 314 | 0.0 | 1.6 | 0.00 | 0.00 | 0.00 | 57 | 1017.1 |
| 20260508134746 | 14 | 281 | 0.0 | 8.0 | 0.00 | 0.00 | 0.00 | 58 | 1017.0 |
| 20260508132657 | 14 | 240 | 0.0 | 1.6 | 0.00 | 0.00 | 0.00 | 56 | 1016.9 |
| 20260508131701 | 14 | 324 | 0.0 | 0.0 | 0.00 | 0.00 | 0.00 | 57 | 1016.9 |
| 20260508130716 | 14 | 217 | 0.0 | 6.4 | 0.00 | 0.00 | 0.00 | 54 | 1016.9 |
| 20260508125652 | 15 | 225 | 0.0 | 3.2 | 0.00 | 0.00 | 0.00 | 56 | 1016.8 |
| 20260508124630 | 14 | 224 | 0.0 | 4.8 | 0.00 | 0.00 | 0.00 | 55 | 1016.8 |
| 20260508122451 | 13 | 232 | 0.0 | 4.8 | 0.00 | 0.00 | 0.00 | 58 | 1016.7 |
| 20260508121500 | 13 | 169 | 0.0 | 6.4 | 0.00 | 0.00 | 0.00 | 58 | 1016.7 |
| 20260508120447 | 13 | 308 | 0.0 | 9.7 | 0.00 | 0.00 | 0.00 | 59 | 1016.8 |
| 20260508114256 | 13 | 176 | 0.0 | 0.0 | 0.00 | 0.00 | 0.00 | 61 | 1016.7 |
| 20260508113253 | 13 | 190 | 0.0 | 1.6 | 0.00 | 0.00 | 0.00 | 61 | 1016.6 |
| 20260508110003 | 12 | 214 | 0.0 | 6.4 | 0.00 | 0.00 | 0.00 | 65 | 1016.6 |
| 20260508104959 | 12 | 242 | 0.0 | 6.4 | 0.00 | 0.00 | 0.00 | 65 | 1016.6 |
| 20260508103924 | 12 | 226 | 0.0 | 0.0 | 0.00 | 0.00 | 0.00 | 67 | 1016.5 |
| 20260508102932 | 11 | 222 | 0.0 | 1.6 | 0.00 | 0.00 | 0.00 | 70 | 1016.4 |
| 20260508100825 | 11 | 209 | 0.0 | 1.6 | 0.00 | 0.00 | 0.00 | 70 | 1016.3 |
| 20260508093527 | 11 | 313 | 0.0 | 3.2 | 0.00 | 0.00 | 0.00 | 72 | 1016.0 |
| 20260508092503 | 11 | 300 | 0.0 | 4.8 | 0.00 | 0.00 | 0.00 | 70 | 1015.9 |
| 20260508091526 | 12 | 291 | 0.0 | 0.0 | 0.00 | 0.00 | 0.00 | 67 | 1015.7 |
| 20260508090533 | 12 | 177 | 0.0 | 4.8 | 0.00 | 0.00 | 0.00 | 66 | 1015.7 |
| 20260508085516 | 12 | 190 | 0.0 | 4.8 | 0.00 | 0.00 | 0.00 | 66 | 1015.7 |
| 20260508082216 | 11 | 218 | 0.0 | 3.2 | 0.00 | 0.00 | 0.00 | 73 | 1015.5 |
| 20260508081149 | 10 | 198 | 0.0 | 0.0 | 0.00 | 0.00 | 0.00 | 74 | 1015.5 |
| 20260508080152 | 10 | 248 | 0.0 | 0.0 | 0.00 | 0.00 | 0.00 | 75 | 1015.4 |
| 20260508075208 | 10 | 207 | 0.0 | 0.0 | 0.00 | 0.00 | 0.00 | 78 | 1015.3 |
| 20260508073027 | 10 | 198 | 0.0 | 0.0 | 0.00 | 0.00 | 0.00 | 80 | 1015.0 |
| 20260508072025 | 10 | 228 | 0.0 | 0.0 | 0.00 | 0.00 | 0.00 | 81 | 1014.9 |
| 20260508070950 | 10 | 228 | 0.0 | 1.6 | 0.00 | 0.00 | 0.00 | 81 | 1014.7 |
| 20260508064819 | 9 | 168 | 0.0 | 0.0 | 0.00 | 0.00 | 0.00 | 85 | 1014.5 |
| 20260508063802 | 9 | 240 | 0.0 | 0.0 | 0.00 | 0.00 | 0.00 | 84 | 1014.5 |
| 20260508061547 | 9 | 158 | 0.0 | 0.0 | 0.00 | 0.00 | 0.00 | 84 | 1014.3 |
| 20260508060606 | 9 | 236 | 0.0 | 0.0 | 0.00 | 0.00 | 0.00 | 85 | 1014.2 |
| 20260508055539 | 9 | 216 | 0.0 | 0.0 | 0.00 | 0.00 | 0.00 | 85 | 1014.1 |
| 20260508054603 | 9 | 226 | 0.0 | 3.2 | 0.00 | 0.00 | 0.00 | 84 | 1013.9 |
| 20260508053625 | 9 | 267 | 0.0 | 0.0 | 0.00 | 0.00 | 0.00 | 84 | 1013.8 |
| 20260508052559 | 9 | 150 | 0.0 | 3.2 | 0.00 | 0.00 | 0.00 | 84 | 1013.7 |
| 20260508051542 | 9 | 173 | 0.0 | 0.0 | 0.00 | 0.00 | 0.00 | 84 | 1013.6 |
| 20260508050509 | 9 | 145 | 0.0 | 0.0 | 0.00 | 0.00 | 0.00 | 83 | 1013.5 |
| 20260508044403 | 9 | 155 | 0.0 | 0.0 | 0.00 | 0.00 | 0.00 | 82 | 1013.3 |
| 20260508043344 | 9 | 158 | 0.0 | 0.0 | 0.00 | 0.00 | 0.00 | 82 | 1013.3 |
| 20260508042348 | 9 | 165 | 0.0 | 0.0 | 0.00 | 0.00 | 0.00 | 82 | 1013.2 |
| 20260508040215 | 9 | 176 | 0.0 | 0.0 | 0.00 | 0.00 | 0.00 | 81 | 1013.0 |
| 20260508035231 | 9 | 176 | 0.0 | 0.0 | 0.00 | 0.00 | 0.00 | 81 | 1013.0 |
| 20260508034221 | 9 | 191 | 0.0 | 1.6 | 0.00 | 0.00 | 0.00 | 80 | 1012.9 |
| 20260508033246 | 9 | 172 | 0.0 | 0.0 | 0.00 | 0.00 | 0.00 | 80 | 1012.8 |
| 20260508032220 | 9 | 233 | 0.0 | 0.0 | 0.00 | 0.00 | 0.00 | 81 | 1012.7 |
| 20260508031242 | 9 | 138 | 0.0 | 0.0 | 0.00 | 0.00 | 0.00 | 80 | 1012.7 |
| 20260508030244 | 9 | 184 | 0.0 | 1.6 | 0.00 | 0.00 | 0.00 | 81 | 1012.7 |
| 20260508025254 | 9 | 198 | 0.0 | 0.0 | 0.00 | 0.00 | 0.00 | 81 | 1012.7 |
| 20260508024306 | 9 | 153 | 0.0 | 0.0 | 0.00 | 0.00 | 0.00 | 81 | 1012.7 |
| 20260508023253 | 9 | 186 | 0.0 | 4.8 | 0.00 | 0.00 | 0.00 | 81 | 1012.6 |
| 20260508022301 | 9 | 142 | 0.0 | 1.6 | 0.00 | 0.00 | 0.00 | 81 | 1012.7 |
| 20260508020129 | 9 | 217 | 0.0 | 1.6 | 0.00 | 0.00 | 0.00 | 80 | 1012.6 |
| 20260508015137 | 9 | 200 | 0.0 | 4.8 | 0.00 | 0.00 | 0.00 | 79 | 1012.6 |
| 20260508014127 | 9 | 255 | 0.0 | 4.8 | 0.00 | 0.00 | 0.00 | 78 | 1012.5 |
| 20260508013108 | 9 | 201 | 0.0 | 3.2 | 0.00 | 0.00 | 0.00 | 77 | 1012.5 |
| 20260508012102 | 9 | 142 | 0.0 | 9.7 | 0.00 | 0.00 | 0.00 | 76 | 1012.5 |
| 20260508011103 | 9 | 232 | 0.0 | 9.7 | 0.00 | 0.00 | 0.00 | 76 | 1012.5 |
| 20260508010117 | 9 | 141 | 0.0 | 6.4 | 0.00 | 0.00 | 0.00 | 75 | 1012.6 |
| 20260508005120 | 9 | 117 | 0.0 | 4.8 | 0.00 | 0.00 | 0.00 | 74 | 1012.6 |
| 20260508004100 | 9 | 186 | 0.0 | 4.8 | 0.00 | 0.00 | 0.00 | 74 | 1012.6 |
| 20260508003058 | 9 | 142 | 0.0 | 0.0 | 0.00 | 0.00 | 0.00 | 74 | 1012.6 |
| 20260508002059 | 9 | 165 | 0.0 | 1.6 | 0.00 | 0.00 | 0.00 | 74 | 1012.6 |
| 20260507234814 | 9 | 160 | 0.0 | 0.0 | 0.00 | 0.00 | 0.00 | 75 | 1012.5 |
| 20260507233804 | 9 | 219 | 0.0 | 4.8 | 0.00 | 0.00 | 0.00 | 75 | 1012.4 |
| 20260507232747 | 9 | 209 | 0.0 | 3.2 | 0.00 | 0.00 | 0.00 | 76 | 1012.3 |
| 20260507231801 | 9 | 240 | 0.0 | 0.0 | 0.00 | 0.00 | 0.00 | 76 | 1012.3 |
| 20260507230732 | 10 | 165 | 0.0 | 3.2 | 0.00 | 0.00 | 0.00 | 75 | 1012.3 |
| 20260507225744 | 10 | 81 | 0.0 | 3.2 | 0.00 | 0.00 | 0.00 | 75 | 1012.3 |
| 20260507223603 | 10 | 219 | 0.0 | 0.0 | 0.00 | 0.00 | 0.00 | 75 | 1012.5 |
| 20260507221513 | 10 | 226 | 0.0 | 8.0 | 0.00 | 0.00 | 0.00 | 77 | 1012.3 |
| 20260507220515 | 9 | 145 | 0.0 | 4.8 | 0.00 | 0.00 | 0.00 | 77 | 1012.3 |
| 20260507214404 | 10 | 197 | 0.0 | 0.0 | 0.00 | 0.00 | 0.00 | 77 | 1012.3 |
| 20260507212216 | 10 | 174 | 0.0 | 4.8 | 0.00 | 0.00 | 0.00 | 76 | 1012.3 |
| 20260507211218 | 10 | 184 | 0.0 | 0.0 | 0.00 | 0.00 | 0.00 | 75 | 1012.3 |
| 20260507210144 | 10 | 163 | 0.0 | 9.7 | 0.00 | 0.00 | 0.00 | 75 | 1012.3 |
| 20260507205201 | 10 | 207 | 0.0 | 9.7 | 0.00 | 0.00 | 0.00 | 75 | 1012.2 |
| 20260507204128 | 10 | 191 | 0.0 | 4.8 | 0.00 | 0.00 | 0.00 | 75 | 1012.2 |
| 20260507203139 | 10 | 194 | 1.6 | 9.7 | 0.00 | 0.00 | 0.00 | 74 | 1012.1 |
| 20260507202113 | 11 | 148 | 0.0 | 8.0 | 0.00 | 0.00 | 0.00 | 74 | 1011.9 |
| 20260507201043 | 11 | 221 | 3.2 | 17.7 | 0.00 | 0.00 | 0.00 | 73 | 1011.8 |
| 20260507200054 | 11 | 158 | 0.0 | 17.7 | 0.00 | 0.00 | 0.00 | 73 | 1011.7 |
| 20260507195103 | 11 | 170 | 1.6 | 9.7 | 0.00 | 0.00 | 0.00 | 72 | 1011.8 |
| 20260507194054 | 11 | 211 | 1.6 | 8.0 | 0.00 | 0.00 | 0.00 | 71 | 1011.7 |
| 20260507193025 | 11 | 134 | 3.2 | 11.3 | 0.00 | 0.00 | 0.00 | 70 | 1011.6 |
| 20260507191957 | 11 | 200 | 1.6 | 12.9 | 0.00 | 0.00 | 0.00 | 69 | 1011.6 |
| 20260507190941 | 11 | 165 | 3.2 | 12.9 | 0.00 | 0.00 | 0.00 | 69 | 1011.7 |
| 20260507185907 | 11 | 127 | 1.6 | 14.5 | 0.00 | 0.00 | 0.00 | 69 | 1011.7 |
| 20260507183802 | 11 | 145 | 1.6 | 14.5 | 0.00 | 0.00 | 0.00 | 68 | 1011.8 |
| 20260507182754 | 12 | 180 | 3.2 | 12.9 | 0.00 | 0.00 | 0.00 | 67 | 1011.7 |
| 20260507181741 | 12 | 141 | 3.2 | 14.5 | 0.00 | 0.00 | 0.00 | 66 | 1011.6 |
| 20260507180806 | 12 | 174 | 6.4 | 14.5 | 0.00 | 0.00 | 0.00 | 65 | 1011.5 |
| 20260507175808 | 12 | 190 | 3.2 | 12.9 | 0.00 | 0.00 | 0.00 | 65 | 1011.6 |
| 20260507174758 | 12 | 177 | 4.8 | 17.7 | 0.00 | 0.00 | 0.00 | 66 | 1011.6 |
| 20260507173753 | 12 | 73 | 4.8 | 17.7 | 0.00 | 0.00 | 0.00 | 65 | 1011.6 |
| 20260507172753 | 12 | 214 | 1.6 | 11.3 | 0.00 | 0.00 | 0.00 | 63 | 1011.6 |
| 20260507171810 | 12 | 158 | 3.2 | 14.5 | 0.00 | 0.00 | 0.00 | 62 | 1011.5 |
| 20260507170751 | 13 | 191 | 3.2 | 14.5 | 0.00 | 0.00 | 0.00 | 61 | 1011.5 |
| 20260507165741 | 13 | 215 | 4.8 | 11.3 | 0.00 | 0.00 | 0.00 | 61 | 1011.6 |
| 20260507164803 | 13 | 155 | 3.2 | 11.3 | 0.00 | 0.00 | 0.00 | 59 | 1011.6 |
| 20260507163734 | 13 | 255 | 4.8 | 16.1 | 0.00 | 0.00 | 0.00 | 58 | 1011.5 |
| 20260507162745 | 13 | 240 | 3.2 | 16.1 | 0.00 | 0.00 | 0.00 | 57 | 1011.5 |
| 20260507160529 | 13 | 235 | 1.6 | 11.3 | 0.00 | 0.00 | 0.00 | 59 | 1011.4 |
| 20260507155528 | 13 | 188 | 4.8 | 14.5 | 0.00 | 0.00 | 0.00 | 61 | 1011.5 |
| 20260507154518 | 13 | 224 | 3.2 | 20.9 | 0.00 | 0.00 | 0.00 | 60 | 1011.6 |
| 20260507153523 | 13 | 166 | 3.2 | 20.9 | 0.00 | 0.00 | 0.00 | 60 | 1011.6 |
| 20260507152541 | 13 | 166 | 1.6 | 11.3 | 0.00 | 0.00 | 0.00 | 60 | 1011.7 |
| 20260507151600 | 13 | 166 | 3.2 | 16.1 | 0.00 | 0.00 | 0.00 | 61 | 1011.7 |
| 20260507150621 | 12 | 172 | 3.2 | 19.3 | 0.00 | 0.00 | 0.00 | 62 | 1011.7 |
| 20260507145604 | 12 | 160 | 4.8 | 19.3 | 0.00 | 0.00 | 0.00 | 62 | 1011.8 |
| 20260507144612 | 12 | 207 | 4.8 | 16.1 | 0.00 | 0.00 | 0.00 | 63 | 1011.9 |
| 20260507143619 | 12 | 144 | 3.2 | 16.1 | 0.00 | 0.00 | 0.00 | 64 | 1011.8 |